Terug naar catalogus

STARLINK-6285

ActiefCommunicatieVLEO
NORAD 56405·PAYLOAD·🇺🇸 United States

Gelanceerd May 4, 2023 vanaf Cape Canaveral Space Force Station

Loading…

Volgende Passages (komende 24 uur)

TLE

VersSource: CelesTrak SupGP

Epoch: Sep 14, 2026, 22:17 UTC

1 56405C 23061AH  26257.92895833 -.00017141  00000+0 -62085-3 0  2577
2 56405  43.0010 198.2736 0001537 260.7466 213.5305 15.27586749    17

Volg STARLINK-6285 in realtime met AllMySat

Download on the App Store